DW3039 Karjalohja FI current weather conditions

sailwx.info

Wind from 016

Air temperature 12.8° C
Dewpoint 8.8° C

Last reported at 2016-Jun-01 02:39 UTC.
Time now 2016-Jun-01 03:45 UTC

Location: N 60°16' E 023°41'.
View on Google Maps.

See reports from other nearby stations

  
Tides and Currents Weather Stations Pressure Air Temp Water Temp Dewpoint Dewpoint Depression Visibility Wind Speed Wind Dir Waves Ship Positions
date/time (UTC)wind fromknots sea level pressurealtimeterstation pressurevisibilityair tempwater tempwave heightnotes
2016-Jun-01 02:39 016 12.8
2016-Jun-01 02:29 016 12.8
2016-Jun-01 02:19 016 12.8
2016-Jun-01 02:09 016 12.2
2016-Jun-01 01:59 023 12.8
2016-Jun-01 01:49 021 12.8
2016-Jun-01 01:39 021 12.8
2016-Jun-01 01:29 021 12.8
2016-Jun-01 01:19 12.8
2016-Jun-01 01:09 015 13.3
2016-Jun-01 00:59 015 13.3
2016-Jun-01 00:49 021 13.3
2016-Jun-01 00:38 034 2 gusting 4 13.3
2016-Jun-01 00:28 042 13.3
2016-Jun-01 00:18 063 13.3
2016-Jun-01 00:08 063 13.9
2016-May-31 23:58 063 13.9
2016-May-31 23:48 063 13.9
2016-May-31 23:38 063 14.4
2016-May-31 23:28 063 14.4
2016-May-31 23:18 063 14.4
2016-May-31 23:08 063 15.0
2016-May-31 22:58 063 15.0
2016-May-31 22:48 063 15.0
2016-May-31 22:38 063 15.0
2016-May-31 22:28 063 15.6
2016-May-31 22:18 063 15.6
2016-May-31 22:08 063 15.6
2016-May-31 21:58 063 16.1
2016-May-31 21:48 063 16.1
2016-May-31 21:38 063 16.7
2016-May-31 21:28 063 16.7
2016-May-31 21:18 063 16.7
2016-May-31 21:08 063 16.7
2016-May-31 20:58 063 17.2
2016-May-31 20:48 086 0 gusting 2 17.2
2016-May-31 20:38 146 17.2
2016-May-31 20:28 153 17.8
2016-May-31 20:18 153 17.8
2016-May-31 20:08 153 18.3
2016-May-31 19:58 153 18.3
2016-May-31 19:48 153 18.9
2016-May-31 19:38 153 18.9
2016-May-31 19:28 108 19.4
2016-May-31 19:18 134 19.4
2016-May-31 19:08 105 20.0
2016-May-31 18:58 055 0 gusting 4 20.0
2016-May-31 18:48 145 20.0
2016-May-31 18:38 121 20.6
2016-May-31 18:28 121 20.6
2016-May-31 18:18 012 20.6
2016-May-31 18:08 123 20.6
2016-May-31 17:58 121 21.1
2016-May-31 17:48 121 21.1
2016-May-31 17:38 121 21.1
2016-May-31 17:28 127 0 gusting 3 21.7
2016-May-31 17:17 027 1 gusting 4 21.7
2016-May-31 17:07 268 21.7
2016-May-31 16:57 094 1 gusting 6 21.7
2016-May-31 16:47 125 2 gusting 5 21.7
2016-May-31 16:37 122 0 gusting 5 22.2
2016-May-31 16:27 172 0 gusting 7 22.2
2016-May-31 16:17 114 0 gusting 4 22.2
2016-May-31 16:07 027 1 gusting 6 22.2
2016-May-31 15:57 057 0 gusting 6 22.8
2016-May-31 15:47 013 0 gusting 6 22.8
2016-May-31 15:37 142 2 gusting 6 22.8
2016-May-31 15:27 124 1 gusting 6 22.8
2016-May-31 15:17 088 2 gusting 6 22.8
2016-May-31 15:07 145 2 gusting 6 22.8
2016-May-31 14:57 129 3 gusting 6 22.8
2016-May-31 14:47 074 0 gusting 6 22.8
2016-May-31 14:37 131 0 gusting 6 23.3
2016-May-31 14:27 042 1 gusting 6 23.3
2016-May-31 14:17 132 2 gusting 5 23.3
2016-May-31 14:07 158 0 gusting 6 23.3
2016-May-31 13:57 143 3 gusting 8 23.3
2016-May-31 13:47 148 3 gusting 7 23.9
2016-May-31 13:37 150 1 gusting 7 23.9
2016-May-31 13:27 143 2 gusting 6 23.9
2016-May-31 13:17 129 2 gusting 7 23.9
2016-May-31 13:07 015 0 gusting 6 24.4
2016-May-31 12:57 026 2 gusting 9 24.4
2016-May-31 12:47 033 5 gusting 10 23.9
2016-May-31 12:37 073 2 gusting 8 23.9
2016-May-31 12:27 124 0 gusting 6 23.9
2016-May-31 12:17 031 3 gusting 9 23.9
2016-May-31 12:07 180 1 gusting 6 23.9
2016-May-31 11:57 037 1 gusting 5 23.9
2016-May-31 11:47 057 0 gusting 11 23.9
2016-May-31 11:37 040 0 gusting 5 23.9
2016-May-31 11:27 306 2 gusting 6 23.9
2016-May-31 11:17 050 2 gusting 7 23.9
2016-May-31 11:07 095 1 gusting 6 23.9
2016-May-31 10:57 146 3 gusting 6 23.9
2016-May-31 10:47 106 2 gusting 10 23.3
2016-May-31 10:37 088 0 gusting 10 23.3
2016-May-31 10:27 025 6 gusting 12 23.3
2016-May-31 10:17 041 6 gusting 10 23.3
2016-May-31 10:07 042 3 gusting 6 23.3
2016-May-31 09:57 014 7 gusting 13 23.3
2016-May-31 09:47 034 4 gusting 12 23.3
2016-May-31 09:37 035 4 gusting 12 22.8
2016-May-31 09:27 025 0 gusting 8 22.8
2016-May-31 09:17 024 6 gusting 8 22.8
2016-May-31 09:06 172 1 gusting 6 22.8
2016-May-31 08:56 050 2 gusting 6 22.8
2016-May-31 08:46 041 1 gusting 4 22.8
2016-May-31 08:36 144 3 gusting 7 22.8
2016-May-31 08:26 160 1 gusting 7 22.2
2016-May-31 08:16 227 1 gusting 7 22.2
2016-May-31 08:06 039 1 gusting 6 22.2
2016-May-31 07:56 146 0 gusting 6 22.2
2016-May-31 07:46 158 2 gusting 8 21.7
2016-May-31 07:36 348 0 gusting 7 21.7
2016-May-31 07:26 037 3 gusting 7 21.1
2016-May-31 07:16 100 0 gusting 3 21.1
2016-May-31 07:06 073 20.6
2016-May-31 06:56 153 0 gusting 4 20.6
2016-May-31 06:46 152 0 gusting 4 20.0
2016-May-31 06:36 124 0 gusting 3 19.4
2016-May-31 06:26 139 0 gusting 4 18.9
2016-May-31 06:16 143 1 gusting 5 18.9
2016-May-31 06:06 155 1 gusting 6 18.9
2016-May-31 05:56 087 18.9
2016-May-31 05:46 140 0 gusting 4 18.9
2016-May-31 05:36 025 1 gusting 3 18.9
2016-May-31 05:26 027 0 gusting 6 18.9
2016-May-31 05:16 019 4 gusting 6 18.9
2016-May-31 05:06 024 18.3
2016-May-31 04:56 026 1 gusting 4 18.3
2016-May-31 04:46 358 0 gusting 3 17.8
2016-May-31 04:36 041 0 gusting 3 17.8
2016-May-31 04:26 035 2 gusting 3 17.2
2016-May-31 04:16 040 3 gusting 4 16.7
2016-May-31 04:06 039 0 gusting 4 16.1
2016-May-31 03:56 039 16.1
2016-May-31 03:46 019 16.1
2016-May-31 03:36 030 2 gusting 4 16.1
2016-May-31 03:26 021 3 gusting 5 15.6
2016-May-31 03:16 025 2 gusting 5 15.6
2016-May-31 03:06 026 2 gusting 5 15.0
2016-May-31 02:56 043 1 gusting 2 15.0
2016-May-31 02:46 016 14.4
2016-May-31 02:36 004 14.4
2016-May-31 02:25 014 13.9
2016-May-31 02:15 011 0 gusting 3 13.9
2016-May-31 02:05 002 13.9
2016-May-31 01:55 025 1 gusting 3 13.9
2016-May-31 01:45 029 1 gusting 2 13.9
2016-May-31 01:35 001 13.9
2016-May-31 01:25 001 13.9
2016-May-31 01:15 340 13.9
2016-May-31 01:05 340 13.9
2016-May-31 00:55 025 13.9
2016-May-31 00:45 014 13.3
2016-May-31 00:35 057 13.3
2016-May-31 00:25 057 13.3
2016-May-31 00:15 057 13.9
2016-May-31 00:05 057 13.9
2016-May-30 23:55 057 13.9
2016-May-30 23:45 057 13.9
2016-May-30 23:35 057 13.9
2016-May-30 23:25 057 13.9
2016-May-30 23:15 057 13.9
2016-May-30 23:05 057 13.9
2016-May-30 22:55 057 14.4
2016-May-30 22:45 057 14.4
2016-May-30 22:35 057 14.4
2016-May-30 22:25 057 14.4
2016-May-30 22:15 057 15.0
2016-May-30 22:05 057 15.0
2016-May-30 21:55 057 15.0
2016-May-30 21:45 057 15.0
2016-May-30 21:35 057 15.6
2016-May-30 21:25 057 15.6
2016-May-30 21:15 057 16.1
2016-May-30 21:05 057 16.1
2016-May-30 20:55 057 16.1
2016-May-30 20:45 057 16.7
2016-May-30 20:35 057 16.7
2016-May-30 20:25 057 17.2
2016-May-30 20:15 057 17.2
2016-May-30 20:05 057 17.8
2016-May-30 19:55 057 17.8
2016-May-30 19:45 057 18.3
2016-May-30 19:35 057 18.3
2016-May-30 19:24 057 18.9
2016-May-30 19:14 057 18.9
2016-May-30 19:04 057 19.4
2016-May-30 18:54 057 19.4
2016-May-30 18:44 057 19.4
2016-May-30 18:34 094 20.0
2016-May-30 18:24 094 20.0
2016-May-30 18:14 094 20.6
2016-May-30 18:04 094 20.6
2016-May-30 17:54 095 20.6
2016-May-30 17:44 149 21.1
2016-May-30 17:34 046 21.1
2016-May-30 17:24 158 0 gusting 5 21.1
2016-May-30 17:14 146 1 gusting 4 21.1
2016-May-30 17:04 150 21.7
2016-May-30 16:54 119 21.7
2016-May-30 16:44 083 21.7
2016-May-30 16:34 125 0 gusting 4 21.7
2016-May-30 16:24 119 22.2
2016-May-30 16:14 131 2 gusting 5 22.2
2016-May-30 16:04 101 1 gusting 5 22.2
2016-May-30 15:54 064 22.2
2016-May-30 15:44 053 0 gusting 6 22.2
2016-May-30 15:34 123 22.2
2016-May-30 15:24 155 1 gusting 7 22.2
2016-May-30 15:14 133 1 gusting 4 22.2
2016-May-30 15:04 034 0 gusting 4 22.2
2016-May-30 14:54 123 1 gusting 5 22.2
2016-May-30 14:44 123 2 gusting 7 22.2
2016-May-30 14:34 024 0 gusting 6 22.8
2016-May-30 14:24 024 5 gusting 7 22.2
2016-May-30 14:14 059 1 gusting 5 22.2
2016-May-30 14:04 131 0 gusting 4 22.2
2016-May-30 13:54 135 2 gusting 6 22.2
2016-May-30 13:44 142 0 gusting 6 22.8
2016-May-30 13:34 036 5 gusting 8 22.8
2016-May-30 13:24 037 3 gusting 6 22.2
2016-May-30 13:14 034 3 gusting 6 22.2
2016-May-30 13:04 099 2 gusting 5 22.2
2016-May-30 12:54 051 1 gusting 4 22.2
2016-May-30 12:44 144 2 gusting 6 22.2
2016-May-30 12:34 111 2 gusting 5 22.2
2016-May-30 12:24 087 1 gusting 6 22.2
2016-May-30 12:14 158 3 gusting 7 22.2
2016-May-30 12:03 078 3 gusting 6 21.7
2016-May-30 11:53 028 2 gusting 8 21.7
2016-May-30 11:43 049 2 gusting 6 21.7
2016-May-30 11:33 056 1 gusting 7 21.7
2016-May-30 11:23 038 3 gusting 6 22.2
2016-May-30 11:13 084 0 gusting 8 21.7
2016-May-30 11:03 099 2 gusting 7 21.7
2016-May-30 10:53 032 0 gusting 7 21.7
2016-May-30 10:43 125 1 gusting 6 21.7
2016-May-30 10:33 138 3 gusting 6 21.7
2016-May-30 10:23 087 4 gusting 8 21.7
2016-May-30 10:13 139 1 gusting 8 21.1
2016-May-30 10:03 038 1 gusting 7 21.1
2016-May-30 09:53 022 4 gusting 8 21.1
2016-May-30 09:43 100 1 gusting 5 21.1
2016-May-30 09:33 037 2 gusting 6 20.6
2016-May-30 09:23 029 4 gusting 10 20.6
2016-May-30 09:13 026 5 gusting 7 20.6
2016-May-30 09:03 012 4 gusting 8 20.6
2016-May-30 08:53 036 4 gusting 8 20.6
2016-May-30 08:43 036 5 gusting 9 20.0
2016-May-30 08:33 065 2 gusting 6 20.0
2016-May-30 08:23 066 1 gusting 6 20.0
2016-May-30 08:13 053 1 gusting 8 20.0
2016-May-30 08:03 040 4 gusting 7 19.4
2016-May-30 07:53 095 2 gusting 6 19.4
2016-May-30 07:43 028 2 gusting 9 19.4
2016-May-30 07:33 034 4 gusting 7 19.4
2016-May-30 07:23 014 5 gusting 7 18.9
2016-May-30 07:13 040 3 gusting 8 18.9
2016-May-30 07:03 019 6 gusting 9 18.3
2016-May-30 06:53 134 2 gusting 6 18.3
2016-May-30 06:43 032 5 gusting 9 17.8
2016-May-30 06:33 024 3 gusting 6 17.2
2016-May-30 06:23 033 2 gusting 6 17.2
2016-May-30 06:13 031 3 gusting 9 16.7
2016-May-30 06:03 087 1 gusting 8 16.7
2016-May-30 05:53 021 4 gusting 6 16.7
2016-May-30 05:42 027 4 gusting 9 16.7
2016-May-30 05:32 013 16.7
2016-May-30 05:22 042 4 gusting 7 16.7
2016-May-30 05:12 039 2 gusting 6 16.1
2016-May-30 05:02 083 16.1
2016-May-30 04:52 039 2 gusting 6 16.1
2016-May-30 04:42 021 15.6
2016-May-30 04:32 024 2 gusting 5 15.6
2016-May-30 04:22 002 0 gusting 3 15.0
2016-May-30 04:12 013 1 gusting 6 15.0
2016-May-30 04:02 354 1 gusting 5 14.4
2016-May-30 03:52 019 0 gusting 6 13.9
2016-May-30 03:42 016 13.9
2016-May-30 03:32 030 1 gusting 5 13.3
2016-May-30 03:22 036 0 gusting 5 13.3
2016-May-30 03:12 036 3 gusting 5 12.8
2016-May-30 03:02 039 2 gusting 6 12.8